SCP
0 0 0 0 0 0 0 0 0 0 0 0 0 0 0 0 0 0 0 0 0 0 0 0 0 0 0 0 0 0 0 0 0 0 0 0 0 0 0 0 0 0 0
0 0 0 0 0 0 0 0 0 0 0 0 0 0 0 0 0 0 0 0 0 0 0 0 0 0 0 0 0 0 0 0 0 0 0 0 0 0 0 0 0 0 0
0 0 0 0 0 0 0 0 0 0 0 0 0 0 0 0 0 0 0 0 0 0 0 0 0 0 0 0 0 0 0 0 0 0 0 0 0 0 0 0 0 0 0
0 0 0 0 0 0 0 0 0 0 0 0 0 0 0 0 0 0 0 0 0 0 0 0 0 0 0 0 0 0 0 0 0 0 0 0 0 0 0 0 0 0 0
0 0 0 0 0 0 0 0 0 0 0 0 0 0 0 0 0 0 0 0 0 0 0 0 0 0 0 0 0 0 0 0 0 0 0 0 0 0 0 0 0 0 0
0 0 0 0 0 0 0 0 0 0 0 0 0 0 0 0 0 0 0 0 0 0 0 0 0 0 0 0 0 0 0 0 0 0 0 0 0 0 0 0 0 0 0
0 0 0 0 0 0 0 0 0 0 0 0 0 0 0 0 0 0 0 0 0 0 0 0 0 0 0 0 0 0 0 0 0 0 0 0 0 0 0 0 0 0 0
0 0 0 0 0 0 0 0 0 0 0 0 0 0 0 0 0 0 0 0 0 0 0 0 0 0 0 0 0 0 0 0 0 0 0 0 0 0 0 0 0 0 0
0 0 0 0 0 0 0 0 0 0 0 0 0 0 0 0 0 0 0 0 0 0 0 0 0 0 0 0 0 0 0 0 0 0 0 0 0 0 0 0 0 0 0
0 0 0 0 0 0 0 0 0 0 0 0 0 0 0 0 0 0 0 0 0 0 0 0 0 0 0 0 0 0 0 0 0 0 0 0 0 0 0 0 0 0 0
0 0 0 0 0 0 0 0 0 0 0 0 0 0 0 0 0 0 0 0 0 0 0 0 0 0 0 0 0 0 0 0 0 0 0 0 0 0 0 0 0 0 0
0 0 0 0 0 0 0 0 0 0 0 0 0 0 0 0 0 0 0 0 0 0 0 0 0 0 0 0 0 0 0 0 0 0 0 0 0 0 0 0 0 0 0
0 0 0 0 0 0 0 0 0 0 0 0 0 0 0 0 0 0 0 0 0 0 0 0 0 0 0 0 0 0 0 0 0 0 0 0 0 0 0 0 0 0 0
0 0 0 0 0 0 0 0 0 0 0 0 0 0 0 0 0 0 0 0 0 0 0 0 0 0 0 0 0 0 0 0 0 0 0 0 0 0 0 0 0 0 0
0 -0 -0 0 0 0 0 0 0 0 0 0 0 0 0 0 0 0 0 0 0 0 0 0 0 0 0 0 0 0 0 0 0 0 0 0 0 0 0 0 0 0 0
0 0 0 0 0 0 0 0 0 0 0 0 0 0 0 0 0 0 0 0 0 0 0 0 0 0 0 0 0 0 0 0 0 0 0 0 0 0 0 0 0 0 0
0 0 0 0 0 0 0 0 0 0 0 0 0 0 0 0 0 0 0 0 0 0 0 0 0 0 0 0 0 0 0 0 0 0 0 0 0 0 0 0 0 0 0
0 0 0 0 0 0 0 0 0 0 0 0 0 0 0 0 0 0 0 0 0 0 0 0 0 0 0 0 0 0 0 0 0 0 0 0 0 0 0 0 0 0 0
0 0 0 0 0 0 0 0 0 0 0 0 0 0 0 0 0 0 0 0 0 0 0 0 0 0 0 0 0 0 0 0 0 0 0 0 0 0 0 0 0 0 0
0 0 0 0 0 0 0 0 0 0 0 0 0 0 0 0 0 0 0 0 0 0 0 0 0 0 0 0 0 0 0 0 0 0 0 0 0 0 0 0 0 0 0
0 0 0 0 0 0 0 0 0 0 0 0 0 0 0 0 0 0 0 0 0 0 0 0 0 0 0 0 0 0 0 0 0 0 0 0 0 0 0 0 0 0 0
0 0 0 0 0 0 0 0 0 0 0 0 0 0 0 0 0 0 0 0 0 0 0 0 0 0 0 0 0 0 0 0 0 0 0 0 0 0 0 0 0 0 0
0 0 0 0 0 0 0 0 0 0 0 0 0 0 0 0 0 0 0 0 0 0 0 0 0 0 0 0 0 0 0 0 0 0 0 0 0 0 0 0 0 0 0
0 0 0 0 0 0 0 0 0 0 0 0 0 0 0 0 0 0 0 0 0 0 0 0 0 0 0 0 0 0 0 0 0 0 0 0 0 0 0 0 0 0 0
0 0 0 0 0 0 0 0 0 0 0 0 0 0 0 0 0 0 0 0 0 0 0 0 0 0 0 0 0 0 0 0 0 0 0 0 0 0 0 0 0 0 0
0 0 0 0 0 0 0 0 0 0 0 0 0 0 0 0 0 0 0 0 0 0 0 0 0 0 0 0 0 0 0 0 0 0 0 0 0 0 0 0 0 0 0
Wind_Speed
4 3 3 3 4 4 4 4 5 4 5 5 5 5 5 5 5 4 1 2 2 3 3 4 5 7 7 6 6 6 6 7 7 6 6 6 6 6 8 8 9 9 9
3 4 4 3 4 4 5 5 5 4 5 4 5 5 5 5 5 4 3 3 3 1 2 3 4 6 7 7 7 7 6 7 7 7 7 7 6 7 8 8 9 9 9
4 4 4 4 4 4 5 5 5 4 4 4 4 5 4 4 4 4 4 3 3 5 3 2 4 5 6 6 7 7 7 7 8 8 8 8 7 8 8 8 9 9 9
4 4 4 4 4 4 4 4 4 4 4 3 3 3 3 3 4 4 4 4 3 3 5 3 2 3 4 5 6 7 7 7 8 9 8 8 8 8 8 8 9 8 8
5 4 4 4 5 4 4 4 3 4 4 3 3 3 3 2 3 4 4 4 3 3 3 5 4 3 4 5 6 7 7 7 8 9 9 9 9 9 8 8 8 9 8
4 5 3 4 5 4 4 4 4 4 3 3 3 2 2 2 2 2 3 3 3 3 2 3 4 5 5 4 5 6 8 8 9 9 10 10 10 9 9 9 9 9 8
4 4 4 4 4 3 4 5 4 4 3 2 3 2 2 2 1 1 2 2 2 1 2 3 3 3 5 7 5 5 6 7 9 10 10 11 10 10 10 10 10 10 9
3 4 4 3 3 3 4 4 4 4 2 2 3 3 2 3 2 1 1 1 1 2 1 2 3 3 3 3 6 5 4 5 7 9 10 11 11 11 10 10 10 10 10
3 4 4 4 4 3 3 4 4 4 3 2 2 3 2 1 1 2 1 1 0 0 1 1 2 2 3 2 4 6 4 4 6 8 9 10 11 12 11 11 11 11 11
3 3 4 4 4 3 3 3 3 3 4 2 1 2 3 3 2 1 2 1 1 0 0 1 1 1 2 2 2 4 4 4 5 8 9 9 10 11 11 12 12 11 11
2 3 3 3 3 3 3 3 3 4 3 3 2 2 2 2 3 2 1 1 1 1 0 1 1 1 1 1 2 3 3 3 4 6 8 8 9 10 11 12 12 12 12
2 2 3 3 3 3 3 3 3 3 3 3 2 2 2 2 2 2 2 1 1 1 1 0 1 1 1 1 1 3 3 3 3 4 5 7 8 8 9 10 11 12 12
2 2 2 3 3 3 3 3 3 3 2 2 2 2 2 2 2 2 2 1 1 1 1 1 1 0 1 1 1 2 4 2 3 4 4 5 6 6 7 8 9 11 11
3 3 3 3 3 3 3 2 3 2 2 2 2 2 2 2 2 2 2 2 1 1 2 1 1 0 0 1 2 2 3 4 2 3 4 4 5 6 6 6 7 9 10
3 4 4 3 3 3 3 3 2 2 2 2 2 2 2 1 2 2 2 2 2 2 1 1 1 0 0 0 1 2 2 4 2 2 3 4 4 6 6 6 6 6 7
4 5 5 4 4 3 3 3 2 2 3 2 2 3 3 2 2 2 2 2 2 3 2 0 0 0 1 1 1 1 1 4 3 3 3 3 4 4 5 5 5 5 5
5 6 5 5 4 4 4 3 4 3 4 3 3 3 3 3 2 2 2 2 2 3 2 1 0 0 1 0 0 0 1 2 3 4 3 3 3 3 4 4 4 4 5
6 6 6 6 5 5 5 5 4 4 4 4 3 3 3 2 3 3 2 3 2 2 3 2 1 0 1 0 0 1 1 1 1 5 3 2 2 3 3 2 3 3 4
7 7 7 6 6 6 6 6 6 5 5 4 4 4 4 3 4 3 3 3 2 2 2 2 1 0 1 0 0 1 1 1 1 3 5 4 3 3 3 3 2 2 2
7 7 7 7 7 7 7 7 6 6 6 5 5 5 5 4 4 4 4 4 3 3 3 3 2 2 1 1 1 1 1 1 1 1 1 2 5 5 4 3 2 2 2
8 8 8 7 7 7 6 6 7 7 7 7 6 6 5 3 3 4 3 3 3 3 3 3 3 2 2 1 1 1 1 2 2 1 2 2 3 3 4 5 4 2 2
8 7 8 8 8 6 4 6 8 8 8 8 7 6 5 6 5 5 4 4 4 4 3 3 3 3 2 2 1 2 2 2 2 1 2 1 2 2 2 2 3 3 2
7 8 8 9 9 8 6 8 10 9 9 8 8 7 5 4 6 6 7 8 6 4 5 4 4 3 3 2 3 3 2 2 1 0 2 2 1 1 1 3 5 4 3
7 8 8 9 9 8 7 9 9 11 10 9 8 8 7 7 6 6 6 6 5 5 5 5 4 3 2 2 3 3 2 2 1 0 2 2 1 1 1 3 6 4 4
8 8 8 9 10 10 9 9 10 8 8 9 8 8 8 7 5 5 7 6 6 5 3 2 2 2 4 3 2 2 2 3 3 2 1 2 1 1 1 2 5 6 5
8 8 8 9 10 10 8 10 12 8 9 8 7 7 6 6 6 8 8 7 7 6 5 6 5 5 4 4 2 3 2 3 2 2 1 2 1 2 2 2 1 2 3
Wind_Direction
330 339 327 333 324 328 314 304 297 308 294 288 277 269 259 247 247 241 173 148 277 284 261 235 213 203 198 195 187 187 183 176 169 168 162 152 147 148 142 135 132 128 125
330 326 324 331 328 328 330 311 303 300 283 284 279 274 269 253 246 235 233 186 189 242 266 236 216 204 197 199 191 189 187 182 176 171 165 160 159 155 150 145 142 137 135
327 326 327 328 333 325 315 312 312 297 285 276 265 266 259 255 255 240 230 232 196 177 181 222 217 203 196 198 196 192 194 188 183 178 175 172 168 162 159 156 151 148 146
335 330 327 329 327 319 315 314 308 298 287 285 280 265 249 234 244 243 231 219 226 209 164 148 196 196 201 203 198 193 200 194 188 185 181 177 173 169 167 165 160 157 155
332 330 328 325 324 321 321 318 323 308 304 302 283 259 260 249 245 240 234 224 208 216 195 153 172 184 196 204 203 197 200 196 193 188 183 179 177 175 173 171 167 165 163
335 330 319 326 328 326 326 322 319 308 300 288 280 268 253 250 235 240 245 227 224 215 216 197 187 173 172 186 197 200 203 198 197 193 190 186 179 178 179 177 176 173 172
328 329 321 332 327 331 329 327 322 310 300 304 283 252 218 223 242 215 248 242 200 198 213 205 208 202 173 170 177 189 204 201 202 199 197 193 184 182 184 184 184 183 182
325 322 323 317 321 319 323 329 327 315 314 301 296 281 235 187 199 192 217 235 216 170 216 223 207 202 212 188 149 169 190 201 209 207 204 198 190 187 189 192 191 189 190
319 322 324 319 322 319 334 328 324 322 316 310 311 302 293 275 186 174 184 213 161 154 210 251 237 211 200 204 172 167 183 202 211 207 207 202 195 193 193 197 197 195 195
313 314 313 313 319 325 327 323 338 317 305 305 297 289 306 329 281 192 176 184 172 157 309 275 271 239 225 209 163 135 169 203 211 203 203 206 200 198 198 200 199 199 198
300 305 307 308 314 320 325 328 330 322 313 312 312 300 291 277 275 281 220 191 178 158 102 294 275 271 252 227 205 137 161 196 206 203 204 210 207 203 202 203 204 205 205
283 294 294 298 306 317 320 322 319 318 318 320 310 306 307 304 310 290 261 222 192 129 140 294 281 268 263 233 179 111 161 191 203 205 206 209 208 208 207 205 207 208 209
286 304 289 293 304 311 313 312 305 310 303 304 307 310 315 314 316 304 285 263 222 184 174 181 170 257 243 230 137 147 164 174 198 203 205 203 201 205 209 212 212 209 211
298 301 287 288 294 294 291 291 294 303 303 294 299 303 296 307 310 312 307 296 260 208 193 168 151 216 277 250 76 238 163 150 175 199 201 199 199 201 201 213 217 214 216
279 278 273 272 277 275 278 278 287 298 292 295 299 291 285 288 289 298 298 290 284 267 212 148 186 73 236 62 55 232 185 125 164 208 211 205 205 204 203 209 214 214 216
268 264 269 267 266 261 256 265 277 294 280 265 278 291 285 273 281 282 279 275 278 283 274 108 188 322 341 258 151 270 107 135 176 193 205 208 208 200 202 204 209 211 213
256 258 262 269 268 261 251 238 257 264 272 271 254 262 266 274 270 265 259 258 260 266 258 248 251 256 239 251 164 269 225 224 157 147 176 194 203 201 198 201 204 206 207
259 260 260 261 262 260 256 250 247 251 259 270 273 268 269 246 246 256 250 246 245 255 256 244 232 306 331 24 4 270 227 210 181 123 136 145 166 176 178 183 187 189 197
261 257 256 256 255 256 255 250 248 249 251 256 260 263 265 262 246 230 237 239 234 230 236 235 231 274 272 273 309 260 211 217 222 146 156 157 147 150 155 166 170 172 186
264 262 260 256 255 253 251 248 249 250 252 252 252 257 261 260 259 247 233 234 232 226 220 228 223 218 230 238 237 246 212 188 214 198 159 161 155 162 162 165 167 163 173
264 263 261 256 253 253 253 255 251 249 249 249 245 244 247 265 304 289 273 247 225 221 216 219 218 211 210 214 224 245 240 222 189 229 219 193 180 188 176 172 174 163 173
264 263 259 258 254 247 232 244 257 253 249 246 244 241 230 215 214 220 243 274 291 254 232 221 224 217 218 220 229 238 232 231 206 166 254 210 205 198 175 145 105 119 142
259 260 258 257 254 246 220 226 237 254 252 250 247 241 234 222 219 217 200 204 219 245 266 264 245 236 232 217 223 228 230 248 259 16 278 222 199 188 138 99 102 116 117
261 257 259 257 255 250 227 227 229 241 246 244 241 240 235 227 221 229 222 212 209 202 216 233 247 255 269 264 247 250 240 231 222 186 280 253 216 211 167 129 111 111 109
269 260 258 257 254 247 223 223 229 240 239 238 236 237 239 232 190 206 226 215 205 192 161 146 35 56 58 32 302 233 211 217 218 181 234 262 260 265 228 178 136 132 129
269 269 262 258 257 256 229 220 228 238 237 233 228 225 222 237 191 195 219 216 214 204 193 177 181 184 186 161 213 239 233 240 237 196 139 265 258 273 246 185 176 171 157